Fairbanks, AK

11:44 PM AKST on December 10, 2019 (GMT -0900)
Fairbanks International

Weather History for PAFA - May, 2019

Change the Weather History Date:

Monday, May 6, 2019

  Actual Average Record
Temperature  
Mean Temperature 41 °F 45 °F  
Max Temperature 46 °F 57 °F 72 °F (1951)
Min Temperature 35 °F 34 °F 12 °F (1922)
Degree Days  
Heating Degree Days 24 20  
Month to date heating degree days 126 126  
Since 1 July heating degree days 11388 13150  
Cooling Degree Days 0 0  
Month to date cooling degree days 0 0  
Year to date cooling degree days 0 0  
Moisture  
Dew Point 25 °F    
Average Humidity 54    
Maximum Humidity 68    
Minimum Humidity 32    
Precipitation  
Precipitation T in 0.01 in 0.60 in (2004)
Month to date precipitation 0.07 0.09  
Year to date precipitation 2.55 1.65  
Snow  
Snow T in 0.00 in 2.00 in (1931)
Month to date snowfall T 0.3  
Since 1 July snowfall 57.5 64.4  
Snow Depth 0.00 in    
Sea Level Pressure  
Sea Level Pressure 29.69 in    
Wind  
Wind Speed 12 mph (North)    
Max Wind Speed 14 mph    
Max Gust Speed 18 mph    
Visibility 10 miles    
Events      
T = Trace of Precipitation, MM = Missing Value Source: NWS Daily Summary

Daily Weather History Graph

Daily Weather History Graph

Search for Another Location

Airport or City:

Astronomy

May. 06, 2019 Rise Set
Actual Time 5:00 AM AKDT 10:38 PM AKDT
Civil Twilight 3:38 AM AKDT 12:03 AM AKDT
Nautical Twilight Sun does not rise Sun does not rise
Astronomical Twilight Sun does not rise Sun does not rise
Moon 6:21 AM AKDT (5/6) No Moon Set
Length of Visible Light 20h 25m
Length of Day
17h 37m
Waxing Crescent, 4% of the Moon is Illuminated
May 6
Waxing Crescent
May 11
First Quarter
May 18
Full
May 26
Last Quarter
Jun 3
New

Hourly Weather History & Observations

Time (AKDT) Temp. Windchill Dew Point Humidity Pressure Visibility Wind Dir Wind Speed Gust Speed Precip Events Conditions
12:53 AM 37.9 °F 29.6 °F 21.9 °F 53% 29.65 in 10.0 mi North 13.8 mph - N/A   Overcast
1:53 AM 37.0 °F 28.9 °F 23.0 °F 57% 29.64 in 10.0 mi North 12.7 mph - N/A   Mostly Cloudy
2:53 AM 37.0 °F 29.3 °F 24.1 °F 59% 29.64 in 10.0 mi North 11.5 mph - N/A   Mostly Cloudy
3:53 AM 36.0 °F 27.5 °F 25.0 °F 64% 29.63 in 10.0 mi North 12.7 mph - N/A   Mostly Cloudy
4:53 AM 36.0 °F 27.5 °F 25.0 °F 64% 29.62 in 10.0 mi North 12.7 mph - N/A   Overcast
5:53 AM 36.0 °F 28.5 °F 26.1 °F 67% 29.63 in 10.0 mi North 10.4 mph - N/A   Overcast
6:53 AM 36.0 °F 28.0 °F 26.1 °F 67% 29.63 in 10.0 mi North 11.5 mph - N/A   Overcast
7:53 AM 36.0 °F 28.0 °F 26.1 °F 67% 29.62 in 10.0 mi North 11.5 mph - N/A   Overcast
8:53 AM 37.0 °F 29.3 °F 27.0 °F 67% 29.63 in 10.0 mi NNW 11.5 mph - N/A   Overcast
9:53 AM 37.9 °F 31.5 °F 28.0 °F 68% 29.65 in 10.0 mi NNW 9.2 mph - N/A   Overcast
10:53 AM 39.9 °F 32.9 °F 28.0 °F 63% 29.66 in 10.0 mi North 11.5 mph - N/A   Overcast
11:53 AM 42.1 °F 35.2 °F 27.0 °F 55% 29.67 in 10.0 mi North 12.7 mph - N/A   Overcast
12:53 PM 44.1 °F 37.7 °F 26.1 °F 49% 29.68 in 10.0 mi North 12.7 mph - N/A   Overcast
1:53 PM 44.1 °F 37.7 °F 24.1 °F 45% 29.70 in 10.0 mi North 12.7 mph 18.4 mph N/A   Overcast
2:53 PM 45.0 °F 40.1 °F 25.0 °F 46% 29.72 in 10.0 mi North 9.2 mph - N/A   Mostly Cloudy
3:53 PM 45.0 °F 38.5 °F 25.0 °F 46% 29.72 in 10.0 mi North 13.8 mph - N/A   Mostly Cloudy
4:53 PM 44.1 °F 39.0 °F 24.1 °F 45% 29.74 in 10.0 mi NNW 9.2 mph - N/A   Mostly Cloudy
5:53 PM 43.0 °F 37.2 °F 24.1 °F 47% 29.74 in 10.0 mi North 10.4 mph - N/A   Mostly Cloudy
6:53 PM 43.0 °F 37.7 °F 21.9 °F 43% 29.75 in 10.0 mi North 9.2 mph - N/A   Mostly Cloudy
7:53 PM 42.1 °F 36.1 °F 21.9 °F 45% 29.76 in 10.0 mi North 10.4 mph - N/A   Mostly Cloudy
8:53 PM 41.0 °F 35.8 °F 21.0 °F 45% 29.77 in 10.0 mi North 8.1 mph - N/A   Mostly Cloudy
9:53 PM 39.0 °F 32.8 °F 21.0 °F 49% 29.78 in 10.0 mi NNW 9.2 mph - N/A   Mostly Cloudy
10:53 PM 37.9 °F 32.1 °F 21.9 °F 53% 29.79 in 10.0 mi North 8.1 mph - N/A   Mostly Cloudy
11:53 PM 36.0 °F 28.5 °F 21.0 °F 55% 29.79 in 10.0 mi North 10.4 mph - N/A   Mostly Cloudy